カタログに戻る

SUPERVIEW NEO-2 04

運用中科学SSO
NORAD 62080·PAYLOAD·🇨🇳 China

打ち上げ Nov 24, 2024 から Jiuquan Satellite Launch Center

Loading…

次のパス (今後24時間)

TLE

最新Source: Space-Track

元期: Sep 14, 2026, 08:03 UTC

1 62080U 24218C   26257.33565918 -.00000034  00000-0  15477-5 0  9992
2 62080  97.4391 263.4073 0001350  96.5672 263.5716 15.19720892 99989

AllMySatでSUPERVIEW NEO-2 04をリアルタイム追跡

Download on the App Store